SCP
0 0 0 0 0 0 0 0 0 0 0 0 0 0 0 0 0 0 0 0 0 0 0 0 0 0 0 0 0 0 0 0 0 0 0 0 -0 -0 -0 -0 0 0 0 0 0 0 0 0 0 0 0 0 -0 -0
0 0 0 0 0 0 0 0 0 0 0 0 0 0 0 0 0 0 0 0 0 0 0 0 -0 -0 0 0 0 0 0 0 0 0 0 0 -0 -0 -0 0 0 0 0 0 0 0 0 0 0 0 0 -0 -0 -0
0 0 0 0 0 0 0 0 0 0 0 0 0 0 0 0 0 0 0 0 0 0 0 0 0 0 0 0 0 0 0 0 0 0 0 0 0 -0 -0 0 -0 0 0 0 0 0 0 0 0 0 -0 -0 0 0
0 0 0 0 0 0 0 0 0 0 0 0 0 0 0 0 0 0 0 0 0 0 0 0 0 0 0 0 0 0 0 -0 0 0 0 0 0 -0 0 -0 -0 0 0 0 0 0 0 0 0 -0 -0 0 0 0
0 0 0 0 0 0 0 0 0 0 0 0 0 0 0 0 0 0 0 0 0 0 0 0 0 0 0 0 0 0 0 0 0 0 0 0 0 0 -0 -0 0 0 0 0 0 0 0 0 -0 0 0 -0 0 0
0 0 0 0 0 0 0 0 0 0 0 0 0 0 0 0 0 0 0 0 0 0 0 0 0 0 -0 0 0 0 0 0 0 0 0 0 0 0 0 0 -0 0 0 0 0 0 0 0 -0 -0 -0 0 0 0
0 0 0 0 0 0 0 0 0 0 0 0 0 0 0 0 0 0 0 0 0 0 0 0 0 0 0 0 0 0 0 0 0 0 0 0 0 0 0 0 0 0 0 0 0 0 -0 -0 -0 -0 -0 0 0 0
0 0 0 0 0 0 0 0 0 0 0 0 0 0 0 0 0 0 0 0 0 0 0 0 0 0 0 0 0 0 0 0 0 0 0 0 0 0 -0 0 0 0 0 0 0 0 0 -0 -0 -0 -0 0 0 0
0 0 0 0 0 0 0 0 0 0 0 0 0 0 0 0 0 0 0 0 0 0 0 0 0 0 0 0 0 0 0 0 0 0 0 0 0 0 -0 0 0 0 0 0 0 0 0 -0 -0 -0 -0 0 0 0
0 0 0 0 0 0 0 0 0 0 0 0 0 0 0 0 0 0 0 0 0 0 0 0 0 -0 0 -0 -0 -0 0 0 0 0 0 0 0 0 -0 0 0 0 0 0 0 -0 0 -0 -0 0 0 0 0 0
0 0 0 0 0 0 0 0 0 0 0 0 0 0 0 0 0 0 0 0 0 0 0 0 0 -0 0 -0 -0 -0 -0 -0 0 0 0 0 0 0 0 -0 0 0 0 0 -0 -0 0 -0 -0 0 0 0 0 0
0 0 0 0 0 0 0 0 0 0 0 0 0 0 0 0 0 0 0 0 0 0 0 0 0 0 0 0 0 -0 -0 -0 0 -0 0 0 0 -0 0 0 0 0 0 0 -0 -0 0 -0 0 0 0 0 0 0
0 0 0 0 0 0 0 0 0 0 0 0 0 0 0 0 0 0 0 0 0 -0 0 0 0 0 -0 -0 -0 -0 -0 -0 -0 -0 0 -0 0 0 0 0 0 0 0 0 -0 0 -0 -0 -0 0 0 0 0 0
0 0 0 0 0 0 0 0 -0 0 0 0 0 0 0 0 0 0 0 0 -0 -0 -0 -0 0 0 -0 -0 -0 -0 0 0 -0 -0 0 -0 -0 0 0 0 -0 0 0 0 -0 0 -0 -0 -0 -0 -0 0 0 0
0 0 0 0 0 0 0 -0 -0 0 0 0 0 0 0 0 0 0 0 0 0 0 0 0 0 0 0 -0 -0 -0 -0 0 0 0 0 -0 -0 0 0 0 -0 0 0 0 -0 -0 0 -0 -0 -0 -0 -0 -0 -0
0 0 0 0 0 0 -0 -0 0 0 0 0 0 0 0 0 0 0 0 0 0 0 0 0 0 0 0 -0 -0 -0 0 0 0 0 0 -0 -0 -0 -0 0 0 0 -0 0 0 -0 0 0 -0 -0 -0 -0 -0 0
0 0 0 0 0 -0 -0 0 0 0 0 0 0 0 0 0 0 0 0 0 0 0 0 0 0 0 0 0 0 0 0 0 0 0 0 -0 -0 -0 -0 -0 0 0 -0 0 -0 0 0 0 0 -0 -0 -0 -0 -0
0 0 0 0 0 0 0 0 0 0 0 0 0 0 0 0 0 0 0 0 0 0 -0 -0 -0 0 0 0 0 0 0 0 0 0 0 0 -0 -0 -0 -0 0 -0 0 -0 0 -0 0 -0 -0 -0 -0 -0 -0 -0
0 0 0 0 0 0 0 0 0 0 0 0 0 0 0 0 0 0 0 -0 -0 -0 0 0 0 0 -0 0 0 0 0 0 0 0 -0 -0 0 -0 -0 -0 -0 0 0 0 0 0 -0 -0 -0 -0 0 -0 -0 -0
0 0 0 -0 -0 0 0 0 0 0 0 0 0 0 0 0 0 0 0 -0 -0 0 0 0 0 -0 -0 -0 0 -0 0 0 0 0 0 0 0 -0 -0 -0 -0 0 -0 0 0 0 0 0 -0 -0 0 -0 -0 -0
0 0 0 0 0 0 0 0 0 0 0 0 0 0 -0 0 0 0 0 0 0 -0 -0 0 0 -0 0 0 -0 -0 -0 -0 0 0 0 0 0 0 0 0 0 -0 0 0 0 0 0 0 -0 0 -0 0 0 0
0 0 0 0 0 0 0 0 0 0 0 0 -0 -0 -0 0 0 0 0 0 0 0 0 0 0 0 0 0 0 0 0 0 0 0 0 0 0 0 0 0 0 0 0 0 -0 0 0 0 -0 0 0 0 0 0
0 0 0 0 0 0 0 0 0 0 0 0 0 0 0 0 0 0 0 0 0 0 0 0 0 0 0 0 0 0 0 0 0 0 0 0 0 0 0 0 0 0 -0 0 -0 -0 0 0 0 -0 -0 0 0 0
0 0 0 0 0 0 0 0 0 0 0 0 0 0 0 0 0 0 0 0 0 0 0 -0 0 0 0 0 0 -0 0 0 0 0 0 0 0 0 0 0 0 0 0 0 0 0 0 -0 0 0 -0 -0 0 0
0 0 0 0 0 0 0 0 0 0 0 0 0 0 0 0 0 0 0 0 0 0 0 0 -0 -0 0 0 0 0 0 0 0 0 0 0 0 0 0 0 0 0 -0 0 0 0 0 0 0 0 0 0 0 0
0 0 0 0 0 0 0 0 0 0 0 0 0 0 0 0 0 0 0 0 0 0 0 0 -0 -0 -0 -0 0 0 0 0 0 0 0 0 0 0 0 0 0 0 0 0 0 0 -0 0 0 -0 0 0 0 -0
0 0 0 0 0 0 0 0 0 0 0 0 0 0 0 0 0 0 0 0 0 0 0 -0 -0 -0 -0 -0 -0 -0 0 -0 0 0 0 0 0 0 0 0 0 0 0 0 0 0 0 0 0 0 -0 0 0 0
0 0 0 0 0 0 0 0 0 0 0 0 0 0 0 0 0 0 0 0 0 0 0 0 -0 -0 -0 -0 -0 -0 -0 -0 -0 0 0 0 0 0 0 0 0 0 0 0 0 0 0 0 0 0 0 0 0 0
0 0 0 0 0 0 0 0 0 0 0 0 0 0 0 0 0 0 0 0 0 0 0 0 0 0 0 0 -0 -0 -0 0 -0 -0 -0 0 0 0 0 0 0 0 0 0 0 0 0 0 0 0 0 0 0 0
0 0 0 0 0 0 0 0 0 0 0 0 0 0 0 0 0 0 0 0 0 0 0 0 0 0 0 0 0 0 0 -0 -0 -0 0 0 0 0 0 0 0 0 0 0 0 0 0 0 0 0 0 0 0 0
0 0 0 0 0 0 0 0 0 0 0 0 0 0 0 0 0 0 0 0 0 0 0 0 0 0 0 0 0 0 0 0 -0 -0 -0 0 0 0 0 0 0 0 0 0 0 0 0 0 0 0 0 0 0 0
0 0 0 0 0 0 0 0 0 0 0 0 0 0 0 0 0 0 0 0 0 0 0 0 0 0 0 0 0 0 0 0 0 0 -0 -0 0 0 0 0 0 0 0 0 0 0 0 0 0 0 0 0 0 0
0 0 0 0 0 0 0 0 0 0 0 0 0 0 0 0 0 0 0 0 0 0 0 0 0 0 0 0 0 0 0 0 0 -0 0 0 0 0 0 0 0 0 0 0 0 0 0 0 0 0 0 0 0 0
Wind_Speed_500mb
40 43 45 44 43 45 44 43 43 46 47 45 42 39 35 32 27 20 18 16 27 36 63 61 45 39 30 24 12 26 24 7 17 7 7 8 10 9 16 22 8 5 4 5 6 9 5 11 11 7 17 58 58 65
40 41 42 42 41 44 44 43 44 46 48 46 42 40 35 30 28 24 26 17 32 34 50 68 70 67 65 57 45 13 16 20 12 6 9 9 12 10 23 10 16 6 10 4 9 8 28 42 37 31 44 42 63 66
39 40 39 39 40 44 43 44 45 45 48 47 44 39 32 26 29 27 30 28 28 45 60 37 39 18 27 39 37 25 23 16 9 7 7 3 10 15 11 15 27 15 9 6 6 1 25 39 28 40 29 47 59 50
38 38 38 36 41 43 42 46 46 45 47 48 44 42 35 34 31 38 34 27 25 19 15 19 19 33 22 26 37 45 39 32 17 22 5 5 7 16 12 27 28 22 16 14 9 16 21 7 38 24 37 44 46 38
36 37 34 35 42 43 43 46 46 46 47 47 45 43 38 41 44 43 39 33 30 25 13 36 67 17 15 35 49 39 39 35 37 6 7 6 10 17 19 17 19 10 9 6 6 17 12 36 43 21 34 42 42 33
34 35 34 37 43 44 44 46 46 47 47 45 44 42 43 45 38 19 12 1 20 37 11 8 31 43 28 18 36 50 46 36 25 10 8 13 27 16 8 12 20 19 11 11 12 16 28 34 40 21 31 34 32 39
34 33 33 38 43 44 46 47 47 47 45 44 43 45 44 37 29 16 5 7 9 9 8 12 13 5 10 25 28 27 29 21 17 8 11 13 43 19 6 19 39 18 9 24 16 17 31 38 45 22 34 30 29 32
34 31 32 39 41 44 46 48 47 45 44 43 43 40 34 18 11 16 19 32 28 10 10 7 11 26 17 26 14 24 16 23 17 11 10 13 20 11 10 14 24 26 21 22 18 20 32 33 41 20 32 36 33 40
31 29 30 38 39 43 46 46 44 43 42 40 33 23 11 5 5 5 14 14 17 22 8 7 7 17 14 7 13 11 21 8 13 8 10 14 10 11 21 10 26 22 23 21 22 28 28 38 37 22 41 37 35 40
29 26 29 36 37 42 43 41 40 40 39 27 20 8 8 6 12 17 8 6 11 9 12 11 28 25 39 45 10 8 13 8 7 14 14 8 14 27 41 15 13 19 18 21 24 24 30 35 42 23 31 25 30 32
26 26 31 35 36 40 38 35 34 38 26 21 13 10 14 26 18 14 8 12 12 7 13 15 21 15 17 14 16 10 7 6 6 5 8 8 1 2 25 31 17 16 19 22 20 18 25 30 35 27 30 26 31 32
27 26 32 33 36 36 33 29 31 28 19 22 20 19 13 6 7 6 7 8 11 6 14 18 14 10 14 11 9 10 6 7 4 10 6 2 7 21 18 11 14 16 16 20 20 21 27 32 33 26 31 27 30 36
30 30 28 32 33 31 26 25 25 27 22 2 2 5 5 6 4 8 10 5 10 9 8 18 16 6 7 6 11 7 7 7 27 7 2 9 28 22 18 16 12 13 13 18 21 23 25 29 32 31 28 24 25 32
34 27 27 30 29 25 21 22 22 18 6 6 5 5 7 5 4 7 16 13 18 23 29 32 26 9 8 3 4 7 10 12 6 5 8 10 12 17 10 24 20 8 15 18 19 25 25 27 30 31 29 33 30 30
30 22 26 26 22 18 18 20 17 2 5 6 7 5 6 16 28 33 34 30 32 32 41 36 32 27 7 5 5 6 6 9 2 8 7 45 38 14 22 24 21 3 9 17 18 21 23 24 28 31 33 30 30 34
21 20 26 16 13 14 15 6 6 2 4 6 8 12 20 23 28 34 38 32 22 34 37 25 9 10 6 4 5 8 7 5 8 13 38 48 50 36 16 21 19 12 10 14 17 20 20 23 25 27 30 31 31 29
15 16 19 13 10 7 3 12 3 4 4 6 8 15 20 26 28 31 33 33 32 34 10 11 10 14 11 6 1 9 8 8 21 34 42 45 52 47 49 28 14 15 8 11 16 20 18 17 18 22 28 26 30 32
18 17 20 13 5 3 4 3 4 6 10 17 17 16 18 17 25 27 24 28 28 18 23 10 7 10 7 9 8 11 27 36 44 45 41 49 49 47 42 34 14 15 9 10 9 10 10 13 15 15 21 22 24 28
31 24 9 11 8 12 7 6 5 7 7 12 10 12 17 20 20 26 26 33 31 23 27 15 6 8 8 13 34 43 47 47 45 47 40 45 42 49 35 40 11 11 13 12 11 9 10 13 12 13 17 17 22 25
28 25 16 10 14 7 6 7 6 7 8 8 13 13 17 18 19 22 26 30 18 6 17 11 10 22 26 39 45 41 50 43 47 49 47 47 48 50 46 50 45 3 6 24 15 17 8 11 12 14 12 14 18 22
17 16 8 15 7 5 6 7 10 6 7 9 10 13 12 9 15 21 20 23 25 12 10 15 30 37 35 33 39 38 38 40 38 38 45 55 53 47 43 46 28 27 13 23 8 21 20 14 13 13 16 16 16 18
14 11 11 9 7 8 8 10 8 6 7 7 9 6 4 10 11 11 21 20 12 11 14 23 35 36 35 35 37 34 39 43 40 38 37 38 40 44 48 46 37 29 19 10 27 14 9 20 20 19 19 21 19 22
16 17 9 10 9 9 9 9 11 7 5 3 4 6 3 2 4 2 9 8 9 16 22 28 30 27 29 31 32 36 44 49 52 48 40 33 35 34 42 39 39 32 26 30 24 25 26 12 28 25 24 23 23 26
18 9 9 12 15 9 8 16 8 7 8 5 4 3 2 3 4 4 6 7 11 18 24 32 32 32 30 34 39 45 54 54 53 49 36 27 34 36 33 34 34 40 16 35 32 18 23 27 29 27 27 27 27 29
6 9 9 9 14 11 10 9 14 9 7 6 6 5 5 5 2 3 5 6 14 18 22 26 28 29 31 36 39 48 58 53 55 48 32 32 35 35 32 30 29 30 35 27 13 16 14 32 33 33 32 31 29 32
8 14 15 21 15 12 13 11 12 12 9 5 6 6 3 3 4 4 5 6 9 14 20 23 27 30 30 34 40 50 56 54 49 52 42 34 29 43 44 42 44 38 34 32 22 24 20 36 43 41 38 36 35 32
8 13 16 18 22 17 9 12 12 8 9 9 6 6 3 3 6 8 7 6 8 14 16 17 20 24 28 31 32 39 44 49 49 44 27 42 35 42 46 47 49 49 43 32 25 20 9 27 32 40 41 46 44 39
15 15 21 23 17 16 10 13 10 11 9 6 1 6 11 6 5 6 4 3 7 10 13 14 17 20 22 25 28 31 34 37 41 42 30 34 37 46 45 44 45 45 41 34 32 31 24 18 21 28 47 29 54 49
14 19 23 20 16 7 14 14 13 14 8 6 4 3 6 9 11 9 5 2 6 9 11 15 17 19 19 21 25 29 34 41 51 57 56 60 69 68 60 55 52 51 54 45 32 25 27 32 26 22 36 30 39 54
19 29 15 26 15 13 17 22 11 16 13 10 16 21 20 18 13 8 5 4 7 8 10 11 14 17 21 24 26 30 30 35 45 49 50 50 54 54 57 59 58 52 54 52 45 32 14 19 27 31 37 43 46 47
25 35 22 20 20 29 30 28 22 20 15 7 7 21 23 20 13 9 8 7 6 7 9 10 12 16 18 23 26 29 32 32 35 39 46 40 42 50 52 53 56 53 46 49 46 38 24 13 20 21 34 48 65 62
36 35 29 15 19 12 30 32 24 15 19 18 17 20 18 16 11 7 4 5 6 8 11 12 11 15 18 17 19 20 24 27 30 42 45 44 46 47 49 50 51 53 51 48 47 48 38 26 16 17 19 39 52 56
28 30 30 21 9 16 20 16 13 12 13 10 10 15 11 9 9 9 8 8 8 9 11 13 15 11 16 16 20 22 23 21 28 37 36 33 35 40 44 45 45 45 48 50 51 50 48 43 36 22 8 4 19 37
Wind_Direction_500mb
304 310 315 314 319 325 330 330 331 333 334 335 334 333 331 329 324 313 285 275 273 273 284 280 282 284 289 268 257 297 320 346 290 286 297 348 313 320 315 317 310 226 278 270 281 272 328 311 346 220 327 306 308 303
303 308 308 312 318 322 324 325 327 330 331 332 332 330 327 327 324 318 302 301 283 276 269 287 284 273 260 257 257 242 262 321 284 313 4 330 316 296 309 295 319 284 209 229 205 242 312 307 296 262 283 297 297 293
299 305 305 310 317 320 320 321 324 328 328 330 330 326 324 322 318 305 293 293 293 283 295 285 286 300 244 238 239 225 250 226 262 333 311 315 282 313 296 296 304 318 111 223 274 84 302 312 321 309 318 306 309 314
294 299 305 309 314 318 319 318 320 325 326 326 326 325 321 312 295 288 289 282 282 280 286 285 314 296 277 232 222 226 236 258 245 311 275 260 257 274 288 294 293 297 182 247 231 281 315 340 318 305 325 323 320 322
290 295 302 307 313 316 317 316 318 322 324 323 323 323 319 311 309 302 286 270 253 240 303 304 307 322 260 230 230 221 226 244 258 253 223 240 254 271 285 286 272 332 300 334 276 35 359 323 309 329 337 321 325 327
281 289 298 306 311 314 316 315 317 321 322 321 320 318 317 313 310 319 325 202 227 236 277 293 296 295 259 213 208 214 223 229 229 219 235 237 251 278 273 285 306 8 323 4 17 3 351 326 332 336 337 329 337 337
274 285 294 305 310 312 314 314 317 320 321 321 318 314 313 306 293 225 287 308 249 235 261 287 275 295 235 200 212 218 218 206 206 214 228 249 270 255 248 266 286 331 15 51 30 12 358 340 332 344 354 349 345 349
267 279 294 306 309 312 314 315 318 322 323 322 318 314 312 308 309 278 262 256 260 273 253 273 277 277 245 215 232 198 185 194 211 227 235 244 261 197 248 268 326 293 22 22 83 54 7 337 339 15 4 9 357 359
260 274 294 306 309 312 313 316 321 325 327 330 324 310 294 252 240 303 307 272 251 233 273 259 282 304 352 305 282 206 179 189 215 221 228 237 240 230 248 3 274 49 24 4 54 34 358 350 356 27 16 11 7 3
253 273 293 302 309 311 313 317 324 328 335 350 343 254 202 94 350 315 301 218 207 220 232 252 254 270 288 296 289 304 179 222 209 221 220 230 264 271 24 269 309 58 32 32 31 9 1 356 0 33 24 25 14 9
252 270 288 300 309 309 311 321 328 333 359 351 327 301 301 302 290 241 236 203 183 239 220 247 244 269 294 275 295 254 286 240 252 140 222 207 312 39 202 232 76 65 33 50 43 28 9 11 1 18 25 35 23 23
255 269 283 300 305 305 312 323 330 340 334 319 309 306 325 329 275 284 261 234 209 348 3 340 345 315 302 313 281 275 279 276 294 243 248 40 177 228 109 123 87 69 46 50 30 32 22 18 14 26 31 52 32 34
252 260 283 296 299 300 311 322 330 333 344 5 280 279 276 265 306 248 325 10 336 336 295 309 315 292 308 315 268 272 267 274 318 284 320 46 286 97 111 114 116 80 59 56 35 46 32 28 27 34 34 51 52 43
248 260 282 288 290 298 309 322 331 346 43 279 302 289 251 205 274 281 303 322 325 306 317 318 301 265 234 255 319 292 317 299 258 266 59 269 352 62 82 102 80 325 68 65 36 59 42 37 39 40 45 42 51 47
243 260 273 275 283 295 314 323 328 46 307 279 294 251 274 345 326 326 328 352 345 325 323 320 301 267 164 261 231 296 262 267 312 23 30 348 5 92 118 110 117 289 75 75 53 52 59 51 50 50 48 50 47 56
240 260 267 263 276 304 317 333 7 168 250 261 238 270 304 324 332 334 330 321 337 322 318 327 292 278 176 209 235 251 281 6 19 332 11 360 358 4 337 114 123 102 50 84 77 62 60 60 58 60 59 54 56 56
221 228 260 261 288 312 26 108 136 229 267 264 260 287 323 334 343 340 330 319 323 321 327 319 320 21 304 312 305 25 339 311 353 359 4 356 348 343 349 341 117 116 103 90 92 70 71 74 74 67 68 64 64 65
181 234 261 257 225 117 187 89 227 232 242 241 275 340 334 326 320 332 333 329 323 307 287 291 309 290 297 354 349 324 345 356 7 0 6 7 350 343 335 336 277 156 160 147 124 97 94 87 68 67 70 68 72 64
176 217 243 210 195 153 192 213 213 261 260 293 309 318 319 336 340 343 339 322 339 314 303 280 287 31 14 338 333 338 347 352 355 347 356 357 349 355 340 344 335 182 148 168 155 122 81 81 85 77 76 68 73 75
200 219 224 206 162 162 198 195 206 249 256 329 278 333 341 327 353 11 1 351 3 348 19 25 21 340 323 320 325 342 341 344 342 341 341 345 346 347 354 358 348 132 205 205 178 144 146 111 109 100 93 92 87 86
191 190 186 157 177 189 232 225 228 225 282 279 312 315 317 8 28 45 39 18 48 47 22 352 339 339 348 345 347 341 340 335 329 325 325 325 331 337 341 340 343 337 321 252 195 174 169 160 138 134 119 110 105 105
198 199 160 182 188 204 244 217 261 293 230 271 289 296 23 28 52 74 65 52 59 34 18 354 350 349 353 355 354 358 346 342 331 319 315 318 324 330 328 336 342 348 345 247 267 212 165 177 158 152 157 149 138 123
178 173 175 190 203 210 246 206 237 197 242 261 289 307 120 155 96 149 92 74 65 17 4 356 354 353 356 357 360 359 353 349 346 339 329 319 317 319 329 334 340 338 337 250 249 224 209 193 163 165 162 155 151 148
165 179 194 201 199 214 203 197 192 213 228 214 246 243 178 145 128 90 89 75 11 355 355 356 360 359 2 3 5 2 355 351 349 350 354 344 337 336 331 325 332 1 328 302 263 243 220 207 190 183 175 174 167 159
182 205 192 224 208 201 206 190 187 203 239 147 226 236 192 177 148 120 103 68 7 360 358 360 0 1 358 356 357 358 0 3 359 359 14 12 352 339 333 333 330 340 346 22 28 262 242 228 215 198 191 188 182 171
215 209 193 199 189 196 196 183 186 194 204 216 238 211 191 140 141 139 86 46 9 358 355 352 353 352 355 358 354 357 358 3 9 10 8 357 358 0 355 350 345 340 342 343 5 15 318 278 213 206 202 198 194 185
225 218 204 220 189 192 188 187 163 143 192 220 176 174 202 189 185 94 125 9 357 353 351 349 351 350 349 352 354 357 2 2 8 6 355 15 21 14 12 5 356 346 339 331 312 310 330 263 283 231 219 200 197 197
234 222 197 197 189 177 199 163 196 198 208 191 171 209 158 152 73 126 126 42 360 355 357 359 360 359 359 1 359 1 4 6 5 14 28 20 12 7 13 11 2 351 340 326 310 291 273 248 266 247 231 249 201 193
221 214 178 185 153 164 194 194 210 185 185 190 228 101 81 86 135 107 108 48 16 2 1 4 5 6 6 8 9 7 8 9 10 10 10 5 8 12 13 10 2 357 354 343 328 303 269 262 249 223 221 255 213 201
212 199 174 184 164 202 199 199 184 136 132 102 113 112 100 113 118 108 99 37 16 10 3 0 1 9 9 8 7 8 13 9 7 10 4 359 352 356 6 4 3 2 1 358 350 337 276 262 249 246 234 226 210 201
197 190 180 186 199 221 188 167 142 128 126 127 132 147 141 145 134 95 76 46 33 21 13 14 12 12 10 9 6 3 3 6 0 4 3 2 359 5 7 6 6 8 8 11 8 1 346 303 230 222 227 228 220 213
191 193 184 191 201 183 172 156 160 151 137 142 141 142 145 161 141 134 9 73 65 38 19 16 5 4 2 359 358 0 360 355 353 356 355 359 3 7 11 10 11 14 18 22 25 24 19 9 318 276 255 231 230 233
190 200 187 191 203 193 201 153 144 138 130 156 142 166 156 148 110 137 113 31 60 42 12 1 356 348 358 359 356 357 0 356 352 344 351 2 360 3 9 10 11 17 24 29 33 36 39 42 44 41 44 244 230 218
Wind_Speed_850mb
40 43 45 44 43 45 44 43 43 46 47 45 42 39 35 32 27 20 18 16 27 36 63 61 45 39 30 24 12 26 24 7 17 7 7 8 10 9 16 22 8 5 4 5 6 9 5 11 11 7 17 58 58 65
40 41 42 42 41 44 44 43 44 46 48 46 42 40 35 30 28 24 26 17 32 34 50 68 70 67 65 57 45 13 16 20 12 6 9 9 12 10 23 10 16 6 10 4 9 8 28 42 37 31 44 42 63 66
39 40 39 39 40 44 43 44 45 45 48 47 44 39 32 26 29 27 30 28 28 45 60 37 39 18 27 39 37 25 23 16 9 7 7 3 10 15 11 15 27 15 9 6 6 1 25 39 28 40 29 47 59 50
38 38 38 36 41 43 42 46 46 45 47 48 44 42 35 34 31 38 34 27 25 19 15 19 19 33 22 26 37 45 39 32 17 22 5 5 7 16 12 27 28 22 16 14 9 16 21 7 38 24 37 44 46 38
36 37 34 35 42 43 43 46 46 46 47 47 45 43 38 41 44 43 39 33 30 25 13 36 67 17 15 35 49 39 39 35 37 6 7 6 10 17 19 17 19 10 9 6 6 17 12 36 43 21 34 42 42 33
34 35 34 37 43 44 44 46 46 47 47 45 44 42 43 45 38 19 12 1 20 37 11 8 31 43 28 18 36 50 46 36 25 10 8 13 27 16 8 12 20 19 11 11 12 16 28 34 40 21 31 34 32 39
34 33 33 38 43 44 46 47 47 47 45 44 43 45 44 37 29 16 5 7 9 9 8 12 13 5 10 25 28 27 29 21 17 8 11 13 43 19 6 19 39 18 9 24 16 17 31 38 45 22 34 30 29 32
34 31 32 39 41 44 46 48 47 45 44 43 43 40 34 18 11 16 19 32 28 10 10 7 11 26 17 26 14 24 16 23 17 11 10 13 20 11 10 14 24 26 21 22 18 20 32 33 41 20 32 36 33 40
31 29 30 38 39 43 46 46 44 43 42 40 33 23 11 5 5 5 14 14 17 22 8 7 7 17 14 7 13 11 21 8 13 8 10 14 10 11 21 10 26 22 23 21 22 28 28 38 37 22 41 37 35 40
29 26 29 36 37 42 43 41 40 40 39 27 20 8 8 6 12 17 8 6 11 9 12 11 28 25 39 45 10 8 13 8 7 14 14 8 14 27 41 15 13 19 18 21 24 24 30 35 42 23 31 25 30 32
26 26 31 35 36 40 38 35 34 38 26 21 13 10 14 26 18 14 8 12 12 7 13 15 21 15 17 14 16 10 7 6 6 5 8 8 1 2 25 31 17 16 19 22 20 18 25 30 35 27 30 26 31 32
27 26 32 33 36 36 33 29 31 28 19 22 20 19 13 6 7 6 7 8 11 6 14 18 14 10 14 11 9 10 6 7 4 10 6 2 7 21 18 11 14 16 16 20 20 21 27 32 33 26 31 27 30 36
30 30 28 32 33 31 26 25 25 27 22 2 2 5 5 6 4 8 10 5 10 9 8 18 16 6 7 6 11 7 7 7 27 7 2 9 28 22 18 16 12 13 13 18 21 23 25 29 32 31 28 24 25 32
34 27 27 30 29 25 21 22 22 18 6 6 5 5 7 5 4 7 16 13 18 23 29 32 26 9 8 3 4 7 10 12 6 5 8 10 12 17 10 24 20 8 15 18 19 25 25 27 30 31 29 33 30 30
30 22 26 26 22 18 18 20 17 2 5 6 7 5 6 16 28 33 34 30 32 32 41 36 32 27 7 5 5 6 6 9 2 8 7 45 38 14 22 24 21 3 9 17 18 21 23 24 28 31 33 30 30 34
21 20 26 16 13 14 15 6 6 2 4 6 8 12 20 23 28 34 38 32 22 34 37 25 9 10 6 4 5 8 7 5 8 13 38 48 50 36 16 21 19 12 10 14 17 20 20 23 25 27 30 31 31 29
15 16 19 13 10 7 3 12 3 4 4 6 8 15 20 26 28 31 33 33 32 34 10 11 10 14 11 6 1 9 8 8 21 34 42 45 52 47 49 28 14 15 8 11 16 20 18 17 18 22 28 26 30 32
18 17 20 13 5 3 4 3 4 6 10 17 17 16 18 17 25 27 24 28 28 18 23 10 7 10 7 9 8 11 27 36 44 45 41 49 49 47 42 34 14 15 9 10 9 10 10 13 15 15 21 22 24 28
31 24 9 11 8 12 7 6 5 7 7 12 10 12 17 20 20 26 26 33 31 23 27 15 6 8 8 13 34 43 47 47 45 47 40 45 42 49 35 40 11 11 13 12 11 9 10 13 12 13 17 17 22 25
28 25 16 10 14 7 6 7 6 7 8 8 13 13 17 18 19 22 26 30 18 6 17 11 10 22 26 39 45 41 50 43 47 49 47 47 48 50 46 50 45 3 6 24 15 17 8 11 12 14 12 14 18 22
17 16 8 15 7 5 6 7 10 6 7 9 10 13 12 9 15 21 20 23 25 12 10 15 30 37 35 33 39 38 38 40 38 38 45 55 53 47 43 46 28 27 13 23 8 21 20 14 13 13 16 16 16 18
14 11 11 9 7 8 8 10 8 6 7 7 9 6 4 10 11 11 21 20 12 11 14 23 35 36 35 35 37 34 39 43 40 38 37 38 40 44 48 46 37 29 19 10 27 14 9 20 20 19 19 21 19 22
16 17 9 10 9 9 9 9 11 7 5 3 4 6 3 2 4 2 9 8 9 16 22 28 30 27 29 31 32 36 44 49 52 48 40 33 35 34 42 39 39 32 26 30 24 25 26 12 28 25 24 23 23 26
18 9 9 12 15 9 8 16 8 7 8 5 4 3 2 3 4 4 6 7 11 18 24 32 32 32 30 34 39 45 54 54 53 49 36 27 34 36 33 34 34 40 16 35 32 18 23 27 29 27 27 27 27 29
6 9 9 9 14 11 10 9 14 9 7 6 6 5 5 5 2 3 5 6 14 18 22 26 28 29 31 36 39 48 58 53 55 48 32 32 35 35 32 30 29 30 35 27 13 16 14 32 33 33 32 31 29 32
8 14 15 21 15 12 13 11 12 12 9 5 6 6 3 3 4 4 5 6 9 14 20 23 27 30 30 34 40 50 56 54 49 52 42 34 29 43 44 42 44 38 34 32 22 24 20 36 43 41 38 36 35 32
8 13 16 18 22 17 9 12 12 8 9 9 6 6 3 3 6 8 7 6 8 14 16 17 20 24 28 31 32 39 44 49 49 44 27 42 35 42 46 47 49 49 43 32 25 20 9 27 32 40 41 46 44 39
15 15 21 23 17 16 10 13 10 11 9 6 1 6 11 6 5 6 4 3 7 10 13 14 17 20 22 25 28 31 34 37 41 42 30 34 37 46 45 44 45 45 41 34 32 31 24 18 21 28 47 29 54 49
14 19 23 20 16 7 14 14 13 14 8 6 4 3 6 9 11 9 5 2 6 9 11 15 17 19 19 21 25 29 34 41 51 57 56 60 69 68 60 55 52 51 54 45 32 25 27 32 26 22 36 30 39 54
19 29 15 26 15 13 17 22 11 16 13 10 16 21 20 18 13 8 5 4 7 8 10 11 14 17 21 24 26 30 30 35 45 49 50 50 54 54 57 59 58 52 54 52 45 32 14 19 27 31 37 43 46 47
25 35 22 20 20 29 30 28 22 20 15 7 7 21 23 20 13 9 8 7 6 7 9 10 12 16 18 23 26 29 32 32 35 39 46 40 42 50 52 53 56 53 46 49 46 38 24 13 20 21 34 48 65 62
36 35 29 15 19 12 30 32 24 15 19 18 17 20 18 16 11 7 4 5 6 8 11 12 11 15 18 17 19 20 24 27 30 42 45 44 46 47 49 50 51 53 51 48 47 48 38 26 16 17 19 39 52 56
28 30 30 21 9 16 20 16 13 12 13 10 10 15 11 9 9 9 8 8 8 9 11 13 15 11 16 16 20 22 23 21 28 37 36 33 35 40 44 45 45 45 48 50 51 50 48 43 36 22 8 4 19 37
Wind_Direction_850mb
304 310 315 314 319 325 330 330 331 333 334 335 334 333 331 329 324 313 285 275 273 273 284 280 282 284 289 268 257 297 320 346 290 286 297 348 313 320 315 317 310 226 278 270 281 272 328 311 346 220 327 306 308 303
303 308 308 312 318 322 324 325 327 330 331 332 332 330 327 327 324 318 302 301 283 276 269 287 284 273 260 257 257 242 262 321 284 313 4 330 316 296 309 295 319 284 209 229 205 242 312 307 296 262 283 297 297 293
299 305 305 310 317 320 320 321 324 328 328 330 330 326 324 322 318 305 293 293 293 283 295 285 286 300 244 238 239 225 250 226 262 333 311 315 282 313 296 296 304 318 111 223 274 84 302 312 321 309 318 306 309 314
294 299 305 309 314 318 319 318 320 325 326 326 326 325 321 312 295 288 289 282 282 280 286 285 314 296 277 232 222 226 236 258 245 311 275 260 257 274 288 294 293 297 182 247 231 281 315 340 318 305 325 323 320 322
290 295 302 307 313 316 317 316 318 322 324 323 323 323 319 311 309 302 286 270 253 240 303 304 307 322 260 230 230 221 226 244 258 253 223 240 254 271 285 286 272 332 300 334 276 35 359 323 309 329 337 321 325 327
281 289 298 306 311 314 316 315 317 321 322 321 320 318 317 313 310 319 325 202 227 236 277 293 296 295 259 213 208 214 223 229 229 219 235 237 251 278 273 285 306 8 323 4 17 3 351 326 332 336 337 329 337 337
274 285 294 305 310 312 314 314 317 320 321 321 318 314 313 306 293 225 287 308 249 235 261 287 275 295 235 200 212 218 218 206 206 214 228 249 270 255 248 266 286 331 15 51 30 12 358 340 332 344 354 349 345 349
267 279 294 306 309 312 314 315 318 322 323 322 318 314 312 308 309 278 262 256 260 273 253 273 277 277 245 215 232 198 185 194 211 227 235 244 261 197 248 268 326 293 22 22 83 54 7 337 339 15 4 9 357 359
260 274 294 306 309 312 313 316 321 325 327 330 324 310 294 252 240 303 307 272 251 233 273 259 282 304 352 305 282 206 179 189 215 221 228 237 240 230 248 3 274 49 24 4 54 34 358 350 356 27 16 11 7 3
253 273 293 302 309 311 313 317 324 328 335 350 343 254 202 94 350 315 301 218 207 220 232 252 254 270 288 296 289 304 179 222 209 221 220 230 264 271 24 269 309 58 32 32 31 9 1 356 0 33 24 25 14 9
252 270 288 300 309 309 311 321 328 333 359 351 327 301 301 302 290 241 236 203 183 239 220 247 244 269 294 275 295 254 286 240 252 140 222 207 312 39 202 232 76 65 33 50 43 28 9 11 1 18 25 35 23 23
255 269 283 300 305 305 312 323 330 340 334 319 309 306 325 329 275 284 261 234 209 348 3 340 345 315 302 313 281 275 279 276 294 243 248 40 177 228 109 123 87 69 46 50 30 32 22 18 14 26 31 52 32 34
252 260 283 296 299 300 311 322 330 333 344 5 280 279 276 265 306 248 325 10 336 336 295 309 315 292 308 315 268 272 267 274 318 284 320 46 286 97 111 114 116 80 59 56 35 46 32 28 27 34 34 51 52 43
248 260 282 288 290 298 309 322 331 346 43 279 302 289 251 205 274 281 303 322 325 306 317 318 301 265 234 255 319 292 317 299 258 266 59 269 352 62 82 102 80 325 68 65 36 59 42 37 39 40 45 42 51 47
243 260 273 275 283 295 314 323 328 46 307 279 294 251 274 345 326 326 328 352 345 325 323 320 301 267 164 261 231 296 262 267 312 23 30 348 5 92 118 110 117 289 75 75 53 52 59 51 50 50 48 50 47 56
240 260 267 263 276 304 317 333 7 168 250 261 238 270 304 324 332 334 330 321 337 322 318 327 292 278 176 209 235 251 281 6 19 332 11 360 358 4 337 114 123 102 50 84 77 62 60 60 58 60 59 54 56 56
221 228 260 261 288 312 26 108 136 229 267 264 260 287 323 334 343 340 330 319 323 321 327 319 320 21 304 312 305 25 339 311 353 359 4 356 348 343 349 341 117 116 103 90 92 70 71 74 74 67 68 64 64 65
181 234 261 257 225 117 187 89 227 232 242 241 275 340 334 326 320 332 333 329 323 307 287 291 309 290 297 354 349 324 345 356 7 0 6 7 350 343 335 336 277 156 160 147 124 97 94 87 68 67 70 68 72 64
176 217 243 210 195 153 192 213 213 261 260 293 309 318 319 336 340 343 339 322 339 314 303 280 287 31 14 338 333 338 347 352 355 347 356 357 349 355 340 344 335 182 148 168 155 122 81 81 85 77 76 68 73 75
200 219 224 206 162 162 198 195 206 249 256 329 278 333 341 327 353 11 1 351 3 348 19 25 21 340 323 320 325 342 341 344 342 341 341 345 346 347 354 358 348 132 205 205 178 144 146 111 109 100 93 92 87 86
191 190 186 157 177 189 232 225 228 225 282 279 312 315 317 8 28 45 39 18 48 47 22 352 339 339 348 345 347 341 340 335 329 325 325 325 331 337 341 340 343 337 321 252 195 174 169 160 138 134 119 110 105 105
198 199 160 182 188 204 244 217 261 293 230 271 289 296 23 28 52 74 65 52 59 34 18 354 350 349 353 355 354 358 346 342 331 319 315 318 324 330 328 336 342 348 345 247 267 212 165 177 158 152 157 149 138 123
178 173 175 190 203 210 246 206 237 197 242 261 289 307 120 155 96 149 92 74 65 17 4 356 354 353 356 357 360 359 353 349 346 339 329 319 317 319 329 334 340 338 337 250 249 224 209 193 163 165 162 155 151 148
165 179 194 201 199 214 203 197 192 213 228 214 246 243 178 145 128 90 89 75 11 355 355 356 360 359 2 3 5 2 355 351 349 350 354 344 337 336 331 325 332 1 328 302 263 243 220 207 190 183 175 174 167 159
182 205 192 224 208 201 206 190 187 203 239 147 226 236 192 177 148 120 103 68 7 360 358 360 0 1 358 356 357 358 0 3 359 359 14 12 352 339 333 333 330 340 346 22 28 262 242 228 215 198 191 188 182 171
215 209 193 199 189 196 196 183 186 194 204 216 238 211 191 140 141 139 86 46 9 358 355 352 353 352 355 358 354 357 358 3 9 10 8 357 358 0 355 350 345 340 342 343 5 15 318 278 213 206 202 198 194 185
225 218 204 220 189 192 188 187 163 143 192 220 176 174 202 189 185 94 125 9 357 353 351 349 351 350 349 352 354 357 2 2 8 6 355 15 21 14 12 5 356 346 339 331 312 310 330 263 283 231 219 200 197 197
234 222 197 197 189 177 199 163 196 198 208 191 171 209 158 152 73 126 126 42 360 355 357 359 360 359 359 1 359 1 4 6 5 14 28 20 12 7 13 11 2 351 340 326 310 291 273 248 266 247 231 249 201 193
221 214 178 185 153 164 194 194 210 185 185 190 228 101 81 86 135 107 108 48 16 2 1 4 5 6 6 8 9 7 8 9 10 10 10 5 8 12 13 10 2 357 354 343 328 303 269 262 249 223 221 255 213 201
212 199 174 184 164 202 199 199 184 136 132 102 113 112 100 113 118 108 99 37 16 10 3 0 1 9 9 8 7 8 13 9 7 10 4 359 352 356 6 4 3 2 1 358 350 337 276 262 249 246 234 226 210 201
197 190 180 186 199 221 188 167 142 128 126 127 132 147 141 145 134 95 76 46 33 21 13 14 12 12 10 9 6 3 3 6 0 4 3 2 359 5 7 6 6 8 8 11 8 1 346 303 230 222 227 228 220 213
191 193 184 191 201 183 172 156 160 151 137 142 141 142 145 161 141 134 9 73 65 38 19 16 5 4 2 359 358 0 360 355 353 356 355 359 3 7 11 10 11 14 18 22 25 24 19 9 318 276 255 231 230 233
190 200 187 191 203 193 201 153 144 138 130 156 142 166 156 148 110 137 113 31 60 42 12 1 356 348 358 359 356 357 0 356 352 344 351 2 360 3 9 10 11 17 24 29 33 36 39 42 44 41 44 244 230 218